Wetterdaten: aktuell Samstag, 18.09.2021 20:47
Datum Zeit Temperatur Temp. 5 cm Feuchte A. Luftdruck Regen Wind Richtung Richtung Taupunkt Windchill Windben
18.09.2021 20:47 9,2 C 6,1 C 92 % 1016,7 hPa 0,0 l/m 1,3 km/h (1 Bft) NO 39 8,0 C 9,2 C 3,2 km/h (1 Bft)
18.09.2021 20:46 9,3 C 6,1 C 93 % 1016,7 hPa 0,0 l/m 0,0 km/h (0 Bft) NO 39 8,2 C 9,3 C 0,0 km/h (0 Bft)
18.09.2021 20:45 9,6 C 6,1 C 93 % 1016,7 hPa 0,0 l/m 0,0 km/h (0 Bft) NO 39 8,5 C 9,6 C 0,0 km/h (0 Bft)
18.09.2021 20:44 9,7 C 6,1 C 94 % 1016,6 hPa 0,0 l/m 0,0 km/h (0 Bft) NO 39 8,8 C 9,7 C 0,0 km/h (0 Bft)
18.09.2021 20:43 9,8 C 6,7 C 94 % 1016,7 hPa 0,0 l/m 0,0 km/h (0 Bft) NO 39 8,9 C 9,8 C 0,0 km/h (0 Bft)
18.09.2021 20:42 9,9 C 6,7 C 94 % 1016,7 hPa 0,0 l/m 0,3 km/h (0 Bft) NO 39 9,0 C 9,9 C 1,6 km/h (1 Bft)
18.09.2021 20:41 9,9 C 6,7 C 94 % 1016,7 hPa 0,0 l/m 1,6 km/h (1 Bft) NO 39 9,0 C 9,9 C 3,2 km/h (1 Bft)
18.09.2021 20:40 9,9 C 6,7 C 94 % 1016,6 hPa 0,0 l/m 0,1 km/h (0 Bft) NO 39 9,0 C 9,9 C 1,6 km/h (1 Bft)
18.09.2021 20:39 9,9 C 6,7 C 94 % 1016,6 hPa 0,0 l/m 0,0 km/h (0 Bft) NO 39 9,0 C 9,9 C 0,0 km/h (0 Bft)
18.09.2021 20:38 9,9 C 6,7 C 94 % 1016,6 hPa 0,0 l/m 0,0 km/h (0 Bft) NO 39 9,0 C 9,9 C 0,0 km/h (0 Bft)
18.09.2021 20:37 10,0 C 6,7 C 94 % 1016,7 hPa 0,0 l/m 0,9 km/h (0 Bft) NO 39 9,1 C 10,0 C 3,2 km/h (1 Bft)
18.09.2021 20:36 9,9 C 7,2 C 94 % 1016,7 hPa 0,0 l/m 2,3 km/h (1 Bft) NO 39 9,0 C 9,9 C 3,2 km/h (1 Bft)
18.09.2021 20:35 9,9 C 7,2 C 94 % 1016,6 hPa 0,0 l/m 2,3 km/h (1 Bft) NO 39 9,0 C 9,9 C 3,2 km/h (1 Bft)
18.09.2021 20:34 10,0 C 7,2 C 94 % 1016,6 hPa 0,0 l/m 1,5 km/h (1 Bft) NO 39 9,1 C 10,0 C 3,2 km/h (1 Bft)
18.09.2021 20:33 10,1 C 7,2 C 94 % 1016,6 hPa 0,0 l/m 1,7 km/h (1 Bft) NO 39 9,2 C 10,1 C 3,2 km/h (1 Bft)
18.09.2021 20:32 10,1 C 7,2 C 94 % 1016,6 hPa 0,0 l/m 2,2 km/h (1 Bft) NO 39 9,2 C 10,1 C 3,2 km/h (1 Bft)
18.09.2021 20:31 10,1 C 7,2 C 93 % 1016,6 hPa 0,0 l/m 1,8 km/h (1 Bft) NO 39 9,0 C 10,1 C 3,2 km/h (1 Bft)
18.09.2021 20:30 10,2 C 7,8 C 93 % 1016,6 hPa 0,0 l/m 1,5 km/h (1 Bft) NO 39 9,1 C 10,2 C 3,2 km/h (1 Bft)
18.09.2021 20:29 10,2 C 7,8 C 93 % 1016,6 hPa 0,0 l/m 2,2 km/h (1 Bft) NO 39 9,1 C 10,2 C 3,2 km/h (1 Bft)
18.09.2021 20:28 10,3 C 7,8 C 93 % 1016,6 hPa 0,0 l/m 1,7 km/h (1 Bft) NO 39 9,2 C 10,3 C 3,2 km/h (1 Bft)
18.09.2021 20:27 10,3 C 7,8 C 93 % 1016,6 hPa 0,0 l/m 0,2 km/h (0 Bft) NO 39 9,2 C 10,3 C 1,6 km/h (1 Bft)
18.09.2021 20:26 10,4 C 8,3 C 93 % 1016,6 hPa 0,0 l/m 0,0 km/h (0 Bft) NO 39 9,3 C 10,4 C 0,0 km/h (0 Bft)
18.09.2021 20:25 10,4 C 8,3 C 93 % 1016,7 hPa 0,0 l/m 0,0 km/h (0 Bft) NO 39 9,3 C 10,4 C 0,0 km/h (0 Bft)
18.09.2021 20:24 10,5 C 8,3 C 93 % 1016,6 hPa 0,0 l/m 0,0 km/h (0 Bft) NO 39 9,4 C 10,5 C 0,0 km/h (0 Bft)
18.09.2021 20:23 10,6 C 8,3 C 93 % 1016,6 hPa 0,0 l/m 0,0 km/h (0 Bft) NO 39 9,5 C 10,6 C 0,0 km/h (0 Bft)
18.09.2021 20:22 10,6 C 8,3 C 93 % 1016,6 hPa 0,0 l/m 0,0 km/h (0 Bft) NO 39 9,5 C 10,6 C 0,0 km/h (0 Bft)
18.09.2021 20:21 10,7 C 8,9 C 93 % 1016,5 hPa 0,0 l/m 0,0 km/h (0 Bft) NO 39 9,6 C 10,7 C 0,0 km/h (0 Bft)
18.09.2021 20:20 10,7 C 8,9 C 93 % 1016,5 hPa 0,0 l/m 0,0 km/h (0 Bft) NO 39 9,6 C 10,7 C 0,0 km/h (0 Bft)
18.09.2021 20:19 10,7 C 8,9 C 92 % 1016,5 hPa 0,0 l/m 0,0 km/h (0 Bft) NO 39 9,5 C 10,7 C 0,0 km/h (0 Bft)
18.09.2021 20:18 10,8 C 8,9 C 92 % 1016,5 hPa 0,0 l/m 0,0 km/h (0 Bft) NO 39 9,6 C 10,8 C 0,0 km/h (0 Bft)
18.09.2021 20:17 10,8 C 8,9 C 92 % 1016,5 hPa 0,0 l/m 1,0 km/h (0 Bft) NO 39 9,6 C 10,8 C 1,6 km/h (1 Bft)
18.09.2021 20:16 10,8 C 9,4 C 92 % 1016,4 hPa 0,0 l/m 1,3 km/h (1 Bft) NO 39 9,6 C 10,8 C 1,6 km/h (1 Bft)
18.09.2021 20:15 10,9 C 9,4 C 92 % 1016,4 hPa 0,0 l/m 1,7 km/h (1 Bft) NO 39 9,7 C 10,9 C 3,2 km/h (1 Bft)
18.09.2021 20:14 11,0 C 9,4 C 92 % 1016,4 hPa 0,0 l/m 0,8 km/h (0 Bft) NO 39 9,8 C 11,0 C 1,6 km/h (1 Bft)
18.09.2021 20:13 11,1 C 9,4 C 92 % 1016,4 hPa 0,0 l/m 0,0 km/h (0 Bft) NO 39 9,8 C 11,1 C 0,0 km/h (0 Bft)
18.09.2021 20:12 11,1 C 9,4 C 92 % 1016,4 hPa 0,0 l/m 0,0 km/h (0 Bft) NO 39 9,8 C 11,1 C 0,0 km/h (0 Bft)
18.09.2021 20:11 11,1 C 10,0 C 92 % 1016,4 hPa 0,0 l/m 0,0 km/h (0 Bft) NO 39 9,8 C 11,1 C 0,0 km/h (0 Bft)
18.09.2021 20:10 11,2 C 10,0 C 92 % 1016,4 hPa 0,0 l/m 0,0 km/h (0 Bft) NO 39 9,9 C 11,2 C 0,0 km/h (0 Bft)
18.09.2021 20:09 11,2 C 10,0 C 92 % 1016,4 hPa 0,0 l/m 0,0 km/h (0 Bft) NO 39 9,9 C 11,2 C 0,0 km/h (0 Bft)
18.09.2021 20:08 11,2 C 10,0 C 92 % 1016,3 hPa 0,0 l/m 0,0 km/h (0 Bft) NO 39 9,9 C 11,2 C 0,0 km/h (0 Bft)
18.09.2021 20:07 11,3 C 10,0 C 92 % 1016,3 hPa 0,0 l/m 0,0 km/h (0 Bft) NO 39 10,0 C 11,3 C 0,0 km/h (0 Bft)
18.09.2021 20:06 11,4 C 10,0 C 91 % 1016,4 hPa 0,0 l/m 0,0 km/h (0 Bft) NO 39 10,0 C 11,4 C 0,0 km/h (0 Bft)
18.09.2021 20:05 11,4 C 10,0 C 91 % 1016,3 hPa 0,0 l/m 0,0 km/h (0 Bft) NO 39 10,0 C 11,4 C 0,0 km/h (0 Bft)
18.09.2021 20:04 11,4 C 10,6 C 91 % 1016,3 hPa 0,0 l/m 0,0 km/h (0 Bft) NO 39 10,0 C 11,4 C 0,0 km/h (0 Bft)
18.09.2021 20:03 11,6 C 10,6 C 91 % 1016,4 hPa 0,0 l/m 0,0 km/h (0 Bft) NO 39 10,2 C 11,6 C 0,0 km/h (0 Bft)
18.09.2021 20:02 11,7 C 10,6 C 91 % 1016,3 hPa 0,0 l/m 0,2 km/h (0 Bft) NO 39 10,3 C 11,7 C 1,6 km/h (1 Bft)
18.09.2021 20:01 11,7 C 10,6 C 91 % 1016,3 hPa 0,0 l/m 1,0 km/h (0 Bft) NO 39 10,3 C 11,7 C 3,2 km/h (1 Bft)
18.09.2021 20:00 11,8 C 10,6 C 91 % 1016,3 hPa 0,0 l/m 0,0 km/h (0 Bft) NO 37 10,4 C 11,8 C 0,0 km/h (0 Bft)
18.09.2021 19:59 11,8 C 10,6 C 91 % 1016,3 hPa 0,0 l/m 0,0 km/h (0 Bft) NO 37 10,4 C 11,8 C 0,0 km/h (0 Bft)
18.09.2021 19:58 11,9 C 10,6 C 91 % 1016,3 hPa 0,0 l/m 0,8 km/h (0 Bft) NO 37 10,5 C 11,9 C 1,6 km/h (1 Bft)
18.09.2021 19:57 11,9 C 11,1 C 91 % 1016,3 hPa 0,0 l/m 0,4 km/h (0 Bft) NO 37 10,5 C 11,9 C 1,6 km/h (1 Bft)
18.09.2021 19:56 12,1 C 11,1 C 91 % 1016,3 hPa 0,0 l/m 0,1 km/h (0 Bft) NO 38 10,7 C 12,1 C 1,6 km/h (1 Bft)
18.09.2021 19:55 12,1 C 11,1 C 91 % 1016,3 hPa 0,0 l/m 0,5 km/h (0 Bft) NO 38 10,7 C 12,1 C 1,6 km/h (1 Bft)
18.09.2021 19:54 12,2 C 11,1 C 91 % 1016,3 hPa 0,0 l/m 0,3 km/h (0 Bft) NO 38 10,8 C 12,2 C 1,6 km/h (1 Bft)
18.09.2021 19:53 12,3 C 11,1 C 92 % 1016,3 hPa 0,0 l/m 1,5 km/h (1 Bft) NO 38 11,0 C 12,3 C 3,2 km/h (1 Bft)
18.09.2021 19:52 12,3 C 11,1 C 92 % 1016,3 hPa 0,0 l/m 1,0 km/h (0 Bft) NO 38 11,0 C 12,3 C 1,6 km/h (1 Bft)
18.09.2021 19:51 12,4 C 11,7 C 92 % 1016,3 hPa 0,0 l/m 0,8 km/h (0 Bft) NO 38 11,1 C 12,4 C 1,6 km/h (1 Bft)
18.09.2021 19:50 12,4 C 11,7 C 92 % 1016,2 hPa 0,0 l/m 0,7 km/h (0 Bft) NO 38 11,1 C 12,4 C 1,6 km/h (1 Bft)
18.09.2021 19:49 12,5 C 11,7 C 92 % 1016,2 hPa 0,0 l/m 0,2 km/h (0 Bft) NO 38 11,2 C 12,5 C 1,6 km/h (1 Bft)
18.09.2021 19:48 12,6 C 11,7 C 92 % 1016,2 hPa 0,0 l/m 0,5 km/h (0 Bft) NO 38 11,3 C 12,6 C 1,6 km/h (1 Bft)
18.09.2021 19:47 12,6 C 11,7 C 91 % 1016,2 hPa 0,0 l/m 1,7 km/h (1 Bft) NO 38 11,2 C 12,6 C 3,2 km/h (1 Bft)
18.09.2021 19:46 12,6 C 11,7 C 91 % 1016,2 hPa 0,0 l/m 1,8 km/h (1 Bft) NO 38 11,2 C 12,6 C 3,2 km/h (1 Bft)
18.09.2021 19:45 12,7 C 12,2 C 91 % 1016,3 hPa 0,0 l/m 1,5 km/h (1 Bft) NO 38 11,3 C 12,7 C 3,2 km/h (1 Bft)
18.09.2021 19:44 12,8 C 12,2 C 91 % 1016,2 hPa 0,0 l/m 0,2 km/h (0 Bft) NO 38 11,4 C 12,8 C 1,6 km/h (1 Bft)
18.09.2021 19:43 12,8 C 12,2 C 91 % 1016,2 hPa 0,0 l/m 0,0 km/h (0 Bft) NO 38 11,4 C 12,8 C 0,0 km/h (0 Bft)
18.09.2021 19:42 12,9 C 12,2 C 91 % 1016,2 hPa 0,0 l/m 0,0 km/h (0 Bft) NO 38 11,5 C 12,9 C 0,0 km/h (0 Bft)
18.09.2021 19:41 12,9 C 12,2 C 91 % 1016,2 hPa 0,0 l/m 0,0 km/h (0 Bft) NO 38 11,5 C 12,9 C 0,0 km/h (0 Bft)
18.09.2021 19:40 13,0 C 12,8 C 91 % 1016,3 hPa 0,0 l/m 0,0 km/h (0 Bft) NO 38 11,6 C 13,0 C 0,0 km/h (0 Bft)
18.09.2021 19:39 13,1 C 12,8 C 91 % 1016,2 hPa 0,0 l/m 0,0 km/h (0 Bft) NO 38 11,7 C 13,1 C 0,0 km/h (0 Bft)
18.09.2021 19:38 13,1 C 12,8 C 91 % 1016,2 hPa 0,0 l/m 0,0 km/h (0 Bft) NO 38 11,7 C 13,1 C 0,0 km/h (0 Bft)
18.09.2021 19:37 13,2 C 12,8 C 91 % 1016,2 hPa 0,0 l/m 0,0 km/h (0 Bft) NO 38 11,8 C 13,2 C 0,0 km/h (0 Bft)
18.09.2021 19:36 13,2 C 12,8 C 91 % 1016,2 hPa 0,0 l/m 0,0 km/h (0 Bft) NO 38 11,8 C 13,2 C 0,0 km/h (0 Bft)
18.09.2021 19:35 13,2 C 12,8 C 91 % 1016,2 hPa 0,0 l/m 0,0 km/h (0 Bft) NO 38 11,8 C 13,2 C 0,0 km/h (0 Bft)
18.09.2021 19:34 13,3 C 12,8 C 91 % 1016,2 hPa 0,0 l/m 0,0 km/h (0 Bft) NO 38 11,9 C 13,3 C 0,0 km/h (0 Bft)
18.09.2021 19:33 13,3 C 13,3 C 91 % 1016,1 hPa 0,0 l/m 0,0 km/h (0 Bft) NO 38 11,9 C 13,3 C 0,0 km/h (0 Bft)
18.09.2021 19:32 13,3 C 13,3 C 90 % 1016,2 hPa 0,0 l/m 0,0 km/h (0 Bft) NO 38 11,7 C 13,3 C 0,0 km/h (0 Bft)
18.09.2021 19:31 13,4 C 13,3 C 90 % 1016,2 hPa 0,0 l/m 0,0 km/h (0 Bft) NO 38 11,8 C 13,4 C 0,0 km/h (0 Bft)
18.09.2021 19:30 13,4 C 13,3 C 90 % 1016,2 hPa 0,0 l/m 0,0 km/h (0 Bft) NO 38 11,8 C 13,4 C 0,0 km/h (0 Bft)
18.09.2021 19:29 13,4 C 13,3 C 90 % 1016,2 hPa 0,0 l/m 0,0 km/h (0 Bft) NO 38 11,8 C 13,4 C 0,0 km/h (0 Bft)
18.09.2021 19:28 13,5 C 13,3 C 90 % 1016,1 hPa 0,0 l/m 0,0 km/h (0 Bft) NO 38 11,9 C 13,5 C 0,0 km/h (0 Bft)
18.09.2021 19:27 13,5 C 13,3 C 90 % 1016,2 hPa 0,0 l/m 0,0 km/h (0 Bft) NO 38 11,9 C 13,5 C 0,0 km/h (0 Bft)
18.09.2021 19:26 13,6 C 13,3 C 90 % 1016,2 hPa 0,0 l/m 0,0 km/h (0 Bft) NO 38 12,0 C 13,6 C 0,0 km/h (0 Bft)
18.09.2021 19:25 13,6 C 13,3 C 90 % 1016,1 hPa 0,0 l/m 0,0 km/h (0 Bft) NO 38 12,0 C 13,6 C 0,0 km/h (0 Bft)
18.09.2021 19:24 13,6 C 13,3 C 90 % 1016,2 hPa 0,0 l/m 0,0 km/h (0 Bft) NO 38 12,0 C 13,6 C 0,0 km/h (0 Bft)
18.09.2021 19:23 13,7 C 13,3 C 90 % 1016,2 hPa 0,0 l/m 0,0 km/h (0 Bft) NO 38 12,1 C 13,7 C 0,0 km/h (0 Bft)
18.09.2021 19:22 13,7 C 13,9 C 89 % 1016,2 hPa 0,0 l/m 0,0 km/h (0 Bft) NO 38 11,9 C 13,7 C 0,0 km/h (0 Bft)
18.09.2021 19:21 13,7 C 13,9 C 89 % 1016,2 hPa 0,0 l/m 0,0 km/h (0 Bft) NO 38 11,9 C 13,7 C 0,0 km/h (0 Bft)
18.09.2021 19:20 13,7 C 13,9 C 89 % 1016,2 hPa 0,0 l/m 0,6 km/h (0 Bft) NO 38 11,9 C 13,7 C 1,6 km/h (1 Bft)
18.09.2021 19:19 13,8 C 13,9 C 89 % 1016,2 hPa 0,0 l/m 1,2 km/h (1 Bft) NO 38 12,0 C 13,8 C 1,6 km/h (1 Bft)
18.09.2021 19:18 13,8 C 13,9 C 89 % 1016,2 hPa 0,0 l/m 0,9 km/h (0 Bft) NO 38 12,0 C 13,8 C 1,6 km/h (1 Bft)
18.09.2021 19:17 13,9 C 13,9 C 88 % 1016,2 hPa 0,0 l/m 0,0 km/h (0 Bft) NO 38 11,9 C 13,9 C 0,0 km/h (0 Bft)
18.09.2021 19:16 13,9 C 13,9 C 88 % 1016,2 hPa 0,0 l/m 0,1 km/h (0 Bft) NO 38 11,9 C 13,9 C 1,6 km/h (1 Bft)
18.09.2021 19:15 13,9 C 13,9 C 88 % 1016,2 hPa 0,0 l/m 1,0 km/h (0 Bft) NO 38 11,9 C 13,9 C 1,6 km/h (1 Bft)
18.09.2021 19:14 14,0 C 13,9 C 88 % 1016,2 hPa 0,0 l/m 0,0 km/h (0 Bft) NO 38 12,0 C 14,0 C 0,0 km/h (0 Bft)
18.09.2021 19:13 14,0 C 13,9 C 88 % 1016,2 hPa 0,0 l/m 0,0 km/h (0 Bft) NO 38 12,0 C 14,0 C 0,0 km/h (0 Bft)
18.09.2021 19:12 14,1 C 13,9 C 88 % 1016,2 hPa 0,0 l/m 0,0 km/h (0 Bft) NO 38 12,1 C 14,1 C 0,0 km/h (0 Bft)
18.09.2021 19:11 14,1 C 14,4 C 88 % 1016,2 hPa 0,0 l/m 0,0 km/h (0 Bft) NO 38 12,1 C 14,1 C 0,0 km/h (0 Bft)
18.09.2021 19:10 14,2 C 14,4 C 87 % 1016,2 hPa 0,0 l/m 0,1 km/h (0 Bft) NO 38 12,1 C 14,2 C 1,6 km/h (1 Bft)
18.09.2021 19:09 14,2 C 14,4 C 87 % 1016,2 hPa 0,0 l/m 1,3 km/h (1 Bft) NO 38 12,1 C 14,2 C 1,6 km/h (1 Bft)
18.09.2021 19:08 14,2 C 14,4 C 87 % 1016,1 hPa 0,0 l/m 0,5 km/h (0 Bft) NO 38 12,1 C 14,2 C 1,6 km/h (1 Bft)
_ Min-Zeit 07:15 20:44 15:31 17:59 - 21:00 - - 20:47 07:16 21:00
Minimum _ 8,6 C 6,1 C 70 % 1016,0 hPa - 0,0 km/h (0 Bft) - - 8,0 C 8,6 C 0,0 km/h (0 Bft)
_ Max-Zeit 15:27 17:20 05:42 21:11 21:00 15:37 - - 10:52 15:28 10:59
Maximum _ 17,7 C 25,0 C 98 % 1017,2 hPa 0,0 l/m 9,3 km/h
O-NO (2 Bft)
- - 14,1 C 17,7 C 14,5 km/h
W-NW (3 Bft)
Durchschnitt _ 12,3 C 13,3 C 90 % 1016,7 hPa #0,0 l/m 1,0 km/h (0 Bft) W-NW - 10,7 C 12,3 C 2,0 km/h (1 Bft)
(c) Wetterstation Achslach